#timestamp,LO_Frequency,Hit 
1503651615.6,286046996.5,P
1503651635.5,286047003.5,P
1503651655.3,286047005.2,N
1503651675.1,286047001.4,N
1503651695.9,286047001.3,N
1503651715.7,286047002.9,N
1503651735.5,286047004.7,N
1503651755.4,286047007.3,N
1503651775.2,286047007.1,N
1503651795.0,286047005.8,N
1503651795.9,286047005.8,N
1503651815.8,286047002.9,N
1503651835.6,286046999.7,N
1503651855.4,286047004.0,N
1503651875.2,286047002.5,N
1503651895.1,286047002.4,N
1503651896.0,286047002.4,N
1503651915.8,286047002.5,N
1503651935.6,286046999.8,N
1503651955.5,286047001.9,N
1503651975.3,286047004.1,N
1503651995.1,286047000.2,N
1503652015.9,286046999.5,N
1503652035.7,286046998.3,N
1503652055.5,286047001.1,N
1503652075.4,286047000.6,N
1503652095.2,286046996.9,N
1503652115.0,286046997.2,N
1503652115.9,286046997.2,N
1503652135.8,286046997.0,N
1503652155.6,286046996.5,N
1503652175.4,286046999.0,N
1503652195.3,286046997.1,N
1503652215.1,286046997.9,N
1503652216.0,286046997.9,N
1503652235.8,286046995.0,N
1503652255.6,286046997.4,N
1503652275.5,286046993.4,N
1503652295.3,286046993.6,N
1503652315.1,286046993.3,N
1503652335.9,286046993.4,N
1503652355.7,286046993.6,N
1503652375.5,286046996.3,N
1503652395.4,286046994.0,N
1503652415.2,286046995.8,N
1503652435.0,286046991.7,N
1503652435.9,286046991.7,N
1503652455.8,286046994.6,N
1503652475.6,286046992.8,N
1503652495.4,286046992.8,N
1503652515.3,286046991.1,N
1503652535.1,286046990.5,P
1503652536.0,286046990.5,P
1503652555.8,286046994.8,N
1503652575.7,286046994.7,N
1503652595.5,286046993.8,N
1503652615.3,286046996.1,N
1503652635.2,286046994.2,N
1503652655.9,286046991.8,P
1503652675.7,286046996.9,P
1503652695.6,286046998.0,N
1503652715.4,286046995.8,N
1503652735.2,286046996.7,N
1503652755.1,286046997.2,N
1503652756.0,286046997.2,N
1503652775.8,286046996.5,N
1503652795.6,286046997.4,N
1503652815.5,286046996.8,N
1503652835.3,286046997.3,N
1503652855.1,286046997.5,N
1503652875.8,286046997.0,N
1503652895.7,286046995.1,P
1503652915.5,286047001.0,N
1503652935.4,286046998.1,N
1503652955.2,286046998.2,N
1503652975.0,286046998.5,N
1503652975.9,286046998.5,N
1503652995.7,286046997.1,N
1503653015.6,286046999.0,N
1503653035.4,286046996.6,N
1503653055.2,286046997.7,N
1503653075.1,286046993.5,P
1503653076.0,286046993.5,P
1503653095.8,286046997.4,N
1503653115.6,286046998.6,N
1503653135.5,286046998.8,N
1503653155.3,286046996.7,N
1503653175.1,286046996.8,N
1503653195.9,286046996.6,N
1503653215.7,286046997.4,N
1503653235.5,286046997.3,N
1503653255.4,286046997.2,N
1503653275.2,286046997.5,N
1503653295.0,286046996.0,N
1503653295.9,286046996.0,N
1503653315.8,286046994.2,P
1503653335.6,286046997.1,N
1503653355.4,286046995.9,P
1503653375.3,286046995.9,P
1503653395.1,286046998.1,P
1503653415.8,286046999.0,N
1503653435.7,286046999.0,N
1503653455.5,286046996.8,N
1503653475.3,286046999.6,N
1503653495.2,286046997.3,N
1503653515.9,286046999.6,N
1503653535.7,286046998.8,N
1503653555.6,286046996.5,N
1503653575.4,286046996.9,N
1503653595.2,286046996.5,N
1503653615.0,286046997.7,N
1503653615.9,286046997.7,N
1503653635.8,286046995.7,P
1503653655.6,286046999.2,N
1503653675.5,286046998.0,N
1503653695.3,286046996.7,N
1503653715.1,286046997.0,N
1503653735.8,286046997.0,N
1503653755.7,286046995.3,P
1503653775.5,286046996.8,P
1503653795.3,286046999.6,N
1503653815.2,286046996.5,N
1503653835.0,286046998.8,N
1503653835.9,286046998.8,N
1503653855.7,286047001.2,N
1503653875.6,286047000.6,N
1503653895.4,286046998.3,N
1503653915.2,286046998.9,N
1503653935.1,286046997.0,N
1503653936.0,286046997.0,N
1503653955.8,286046999.0,N
1503653975.6,286046998.3,N
1503653995.5,286046998.2,N
1503654015.3,286046998.6,N
1503654035.1,286046997.3,N
1503654055.9,286046995.4,P
1503654075.7,286046995.3,P
1503654095.5,286046995.6,P
1503654115.4,286046996.0,P
1503654135.2,286046996.9,P
1503654155.0,286046997.2,P
1503654155.9,286046997.2,P
1503654175.8,286047000.4,N
1503654195.6,286047000.7,N
1503654215.4,286047002.8,N
1503654235.3,286046998.2,N
1503654255.1,286046999.0,N
1503654275.8,286046998.2,N
1503654295.7,286046998.9,N
1503654315.5,286046999.6,N
1503654335.3,286046996.7,N
1503654355.2,286046995.3,N
1503654375.9,286046993.7,P
1503654395.7,286046995.5,N
1503654415.6,286046999.0,N
1503654435.4,286046999.3,N
1503654455.2,286046998.4,N
1503654475.1,286046998.7,N
1503654476.0,286046998.7,N
1503654495.8,286046999.0,N
1503654515.6,286046996.7,N
1503654535.4,286046994.9,N
1503654555.3,286046995.6,N
1503654575.1,286046996.9,N
1503654595.8,286046995.3,N
1503654615.7,286046996.6,N
1503654635.5,286046999.5,N
1503654655.3,286046999.2,N
1503654675.2,286046998.3,N
1503654695.9,286046998.5,N
1503654715.7,286047000.9,N
1503654735.6,286046998.8,N
1503654755.4,286047001.0,N
1503654775.2,286047001.1,N
1503654795.1,286046996.2,N
1503654796.0,286046996.2,N
1503654815.8,286046992.1,P
1503654835.6,286046996.3,N
1503654855.5,286046994.0,N
1503654875.3,286046994.6,N
1503654895.1,286046991.9,P
1503654915.9,286046997.6,N
1503654935.7,286046995.1,N
1503654955.5,286046996.1,N
1503654975.4,286046998.0,N
1503654995.2,286046995.3,N
1503655015.0,286046996.0,N
1503655015.9,286046996.0,N
1503655035.8,286046996.0,N
1503655055.6,286046995.1,P
1503655075.4,286047000.0,N
1503655095.3,286047000.7,N
1503655115.1,286047001.1,N
1503655116.0,286047001.1,N
1503655135.8,286046998.2,N
1503655155.7,286046999.3,N
1503655175.5,286046996.6,N
1503655195.3,286046997.0,N
